Regional Weather Roundup
Issued by NWS Mobile, AL

Home | Current Version | Previous Version | Text Only | Print | Product List | Glossary On
Versions: 1 2 3 4 5 6 7 8 9 10 11 12 13 14 15 16 17 18 19 20 21 22 23 24 25 26 27 28 29 30 31 32 33 34 35 36 37 38 39 40 41 42 43 44 45 46 47 48 49 50
000
ASUS44 KMOB 212210
RWRMOB
REGIONAL WEATHER ROUNDUP
NATIONAL WEATHER SERVICE MOBILE AL
500 PM CDT SUN SEP 21 2014

NOTE: "FAIR" INDICATES FEW OR NO CLOUDS BELOW 12,000 FEET WITH NO
      SIGNIFICANT WEATHER AND/OR OBSTRUCTIONS TO VISIBILITY.

  * THESE STATIONS ARE PART OF THE UNIVERSITY OF SOUTH ALABAMA
    MESONET AND ARE NOT UNDER NWS OR FAA QUALITY CONTROL.

ALZ061>064-212300-
COASTAL ALABAMA

CITY           SKY/WX    TMP DP  RH WIND       PRES   REMARKS
MOBILE REG APT MOSUNNY   86  67  52 NW3       29.98S
BROOKLEY FIELD MOSUNNY   85  71  63 S8        29.98S
USA CAMPUS*      N/A     86  64  48 CALM      29.95R
DOG RIVER*     NOT AVBL


CITY           SKY/WX    TMP DP  RH WIND       PRES   REMARKS
MOUNT VERNON*    N/A     86  64  48 CALM      29.96S
SARALAND*      NOT AVBL
BAY MINETTE*   NOT AVBL
LOXLEY*          N/A     68  64  88 CALM      29.97R
ROBERTSDALE*     N/A     84  70  61 CALM      29.96S
FAIRHOPE*        N/A     84  70  61 SW6       29.96S
ELBERTA*         N/A     84  73  70 S3        29.97R
FOLEY*         NOT AVBL
GRAND BAY*       N/A     84  70  61 S7        29.95S
DAUPHIN ISLND* NOT AVBL
BON SCOUR NWR* NOT AVBL
GULF SHORES    SUNNY     84  67  56 SE8       29.97S

$$

ALZ051>060-212300-
INTERIOR SOUTHWEST AND SOUTH CENTRAL ALABAMA

CITY           SKY/WX    TMP DP  RH WIND       PRES   REMARKS
GREENVILLE     SUNNY     89  59  36 CALM      29.97S
EVERGREEN      SUNNY     91  61  36 CALM      29.97S
CASTLEBERRY*   NOT AVBL
ATMORE*        NOT AVBL
DIXIE*         NOT AVBL
ANDALUSIA/OPP  MOSUNNY   92  61  35 CALM      29.96F
ANDALUSIA*     NOT AVBL
FLORALA APT    SUNNY     87  63  44 CALM      29.99S
FLORALA*       NOT AVBL

$$

FLZ001>006-212300-
WESTERN FLORIDA PANHANDLE

CITY           SKY/WX    TMP DP  RH WIND       PRES   REMARKS
PENSACOLA      SUNNY     82  65  56 S8        29.97R
NAS PENSACOLA  MOSUNNY   84  65  52 S9        29.97R
MILTON         MOSUNNY   87  63  44 E5        29.97S
WHTNG S FIELD  MOSUNNY   88  63  43 CALM      29.97S


CITY           SKY/WX    TMP DP  RH WIND       PRES   REMARKS
WALNUT HILL*   NOT AVBL
JAY*           NOT AVBL
DUKE FIELD     MOSUNNY   89  73  59 VRB3      29.97R HX  96
CRESTVIEW      SUNNY     89  63  41 NE3       29.98S
VALPARAISO     MOSUNNY   85  67  54 SW7       29.97R
DESTIN         SUNNY     85  67  54 VRB6      29.97R

$$

MSZ076-079-212300-
INTERIOR SOUTHEAST MISSISSIPPI

CITY           SKY/WX    TMP DP  RH WIND       PRES   REMARKS
LEAKESVILLE*   NOT AVBL
AGRICOLA*      NOT AVBL

$$

MARINE OBSERVATIONS

STATION/POSITION TIME  TEMP    WIND        PRES    WAVE
                       AIR SEA DIR/SP/G            HT/PER
                 (UTC) (F)     (DEG/KT/KT) (MB)    (FT/S)
PASCAGOULA       2200   83     150/ 11/ 13 1014.9R
PETIT BOIS ISLND 2200   83     130/  8/ 11 1015.4R
GRAND BAY        2100   82     150/ 11     1016.0S
KATRINA CUT      2100   82     140/  8     1015.6S
CEDAR POINT      2100   83     140/  8     1015.2F
E DAUPHIN ISLAND 2200   82     140/  7/  8 1015.0S
MIDDLE BAY LIGHT 2100   83     170/  9     1014.9R
USCG MOBILE BAY  2200      83              1013.8S
STATE DOCKS      2200   85 86              1014.7R
MEAHER PARK      2100   85     200/  8     1013.9S
WEEKS BAY        2100   85                   N/A
FORT MORGAN      2200   83     160/  8/ 10 1014.7R
12 S ORANGE BCH  2200   82 85  140/ 10/ 12 1015.0S   2/ 5
PENSACOLA BAY    2200   86 84  180/  3/  7 1015.2R
64 S DAUPHIN ISL 2056   82 85   70/ 14/ 17 1014.9    4/ 6
67 S FORT MORGAN 2100   83                 1014.2S

$$

SELECTED LOCATIONS ACROSS THE REGION

CITY           SKY/WX    TMP DP  RH WIND       PRES   REMARKS
NEW ORLEANS    MOSUNNY   88  66  48 NE6       29.97S
GULFPORT       SUNNY     85  70  60 SE13      29.97S
PASCAGOULA AP  SUNNY     85  70  60 SE9       29.97S
PASCAGOULA*    NOT AVBL
HATTIESBURG    MOSUNNY   89  65  44 VRB3      29.98S
LAUREL         SUNNY    N/A N/A N/A E5        30.00S
MERIDIAN       MOSUNNY   89  62  40 W6        29.97S
JACKSON        MOSUNNY   91  63  39 CALM      29.98S
MONTGOMERY     SUNNY     89  61  38 VRB7      29.95F
TROY           SUNNY     88  61  40 NW6       29.97S
KINSTON*       NOT AVBL
GENEVA*        NOT AVBL
ASHFORD*       NOT AVBL
DOTHAN         SUNNY     85  61  44 NW7       30.00S
PANAMA CITY    SUNNY     88  62  41 SE3       29.95S

$$



USA.gov is the U.S. government's official web portal to all federal, state and local government web resources and services.